Location: ??
(34.7252°N, 135.5457°E)
Time: 08:29:11
(UTC+00:00)

Cosmos 1743 - Pass Details

Date: 24 September 2020
Orbit: 510 x 527 km, 82.6° (Epoch: 23 October)

Event Time Altitude Azimuth Distance (km) Brightness Sun altitude
Rises 19:52:32 0° 347° (NNW) 2,625 6.2 -12.2°
Reaches altitude 10° 19:54:42 10° 342° (NNW) 1,736 5.3 -11.8°
Maximum altitude 19:58:23 50° 267° (W) 661 2.8 -11.0°
Drops below altitude 10° 20:02:03 10° 191° (S) 1,729 5.2 -10.3°
Sets 20:04:13 0° 186° (S) 2,613 6.2 -9.8°
